User: anonymous   Login
Location: Plymouth
(43.7570°N, 71.6890°W)
Time: 18:02:47
(UTC-04:00)
Language:

Meteor 1-28 Rocket - Orbit

View from above orbital plane
View from above orbital plane
View from above satellite
View from above satellite

Ground track
Ground track

The orbit data is extracted from the following two-line orbital elements,

1 10114U 77057B   15090.16098779  .00002998  00000-0  16393-3 0  9998
2 10114 097.2382 301.9083 0012994 263.2959 096.6795 15.14935918 60975
Epoch (UTC): 31 March 2015 03:51:49
Eccentricity: 0.0012994
inclination: 97.2382°
perigee height: 512 km
apogee height: 530 km
right ascension of ascending node: 301.9083°
argument of perigee: 263.2959°
revolutions per day: 15.14935918
mean anomaly at epoch: 96.6795°
orbit number at epoch: 6097

The dashed part of the orbit path shows where the satellite is in the earth's shadow,  

DLR